Year,Month,Day,Hour,Minute,Value (Times are PST for temperature in C)
2022,08,07,00,00,15.80
2022,08,07,00,01,15.80
2022,08,07,00,02,15.80
2022,08,07,00,03,15.70
2022,08,07,00,04,15.70
2022,08,07,00,05,15.70
2022,08,07,00,06,15.60
2022,08,07,00,07,15.60
2022,08,07,00,08,15.60
2022,08,07,00,09,15.60
2022,08,07,00,10,15.50
2022,08,07,00,11,15.50
2022,08,07,00,12,15.50
2022,08,07,00,13,15.50
2022,08,07,00,14,15.50
2022,08,07,00,15,15.50
2022,08,07,00,16,15.50
2022,08,07,00,17,15.50
2022,08,07,00,18,15.40
2022,08,07,00,19,15.40
2022,08,07,00,20,15.40
2022,08,07,00,21,15.30
2022,08,07,00,22,15.30
2022,08,07,00,23,15.30
2022,08,07,00,24,15.20
2022,08,07,00,25,15.20
2022,08,07,00,26,15.20
2022,08,07,00,27,15.10
2022,08,07,00,28,15.10
2022,08,07,00,29,15.10
2022,08,07,00,30,15.10
2022,08,07,00,31,15.10
2022,08,07,00,32,15.10
2022,08,07,00,33,15.10
2022,08,07,00,34,15.10
2022,08,07,00,35,15.10
2022,08,07,00,36,15.10
2022,08,07,00,37,15.10
2022,08,07,00,38,15.10
2022,08,07,00,39,15.00
2022,08,07,00,40,15.00
2022,08,07,00,41,15.00
2022,08,07,00,42,15.00
2022,08,07,00,43,15.00
2022,08,07,00,44,14.90
2022,08,07,00,45,14.90
2022,08,07,00,46,14.90
2022,08,07,00,47,14.90
2022,08,07,00,48,14.80
2022,08,07,00,49,14.80
2022,08,07,00,50,14.80
2022,08,07,00,51,14.70
2022,08,07,00,52,14.70
2022,08,07,00,53,14.70
2022,08,07,00,54,14.60
2022,08,07,00,55,14.60
2022,08,07,00,56,14.60
2022,08,07,00,57,14.60
2022,08,07,00,58,14.50
2022,08,07,00,59,14.40
2022,08,07,01,00,14.40
2022,08,07,01,01,14.40
2022,08,07,01,02,14.30
2022,08,07,01,03,14.30
2022,08,07,01,04,14.30
2022,08,07,01,05,14.20
2022,08,07,01,06,14.20
2022,08,07,01,07,14.20
2022,08,07,01,08,14.20
2022,08,07,01,09,14.10
2022,08,07,01,10,14.10
2022,08,07,01,11,14.10
2022,08,07,01,12,14.10
2022,08,07,01,13,14.10
2022,08,07,01,14,14.00
2022,08,07,01,15,14.00
2022,08,07,01,16,13.90
2022,08,07,01,17,13.90
2022,08,07,01,18,13.90
2022,08,07,01,19,13.90
2022,08,07,01,20,13.90
2022,08,07,01,21,13.90
2022,08,07,01,22,13.90
2022,08,07,01,23,13.90
2022,08,07,01,24,13.90
2022,08,07,01,25,13.90
2022,08,07,01,26,13.90
2022,08,07,01,27,13.90
2022,08,07,01,28,13.90
2022,08,07,01,29,13.90
2022,08,07,01,30,13.90
2022,08,07,01,31,13.90
2022,08,07,01,32,13.90
2022,08,07,01,33,13.90
2022,08,07,01,34,13.90
2022,08,07,01,35,13.90
2022,08,07,01,36,13.90
2022,08,07,01,37,13.90
2022,08,07,01,38,13.90
2022,08,07,01,39,13.90
2022,08,07,01,40,13.90
2022,08,07,01,41,13.90
2022,08,07,01,42,13.90
2022,08,07,01,43,13.90
2022,08,07,01,44,13.80
2022,08,07,01,45,13.80
2022,08,07,01,46,13.80
2022,08,07,01,47,13.80
2022,08,07,01,48,13.80
2022,08,07,01,49,13.80
2022,08,07,01,50,13.80
2022,08,07,01,51,13.70
2022,08,07,01,52,13.70
2022,08,07,01,53,13.70
2022,08,07,01,54,13.80
2022,08,07,01,55,13.80
2022,08,07,01,56,13.70
2022,08,07,01,57,13.70
2022,08,07,01,58,13.70
2022,08,07,01,59,13.70
2022,08,07,02,00,13.70
2022,08,07,02,01,13.70
2022,08,07,02,02,13.70
2022,08,07,02,03,13.70
2022,08,07,02,04,13.70
2022,08,07,02,05,13.70
2022,08,07,02,06,13.70
2022,08,07,02,07,13.70
2022,08,07,02,08,13.60
2022,08,07,02,09,13.60
2022,08,07,02,10,13.60
2022,08,07,02,11,13.60
2022,08,07,02,12,13.60
2022,08,07,02,13,13.60
2022,08,07,02,14,13.60
2022,08,07,02,15,13.60
2022,08,07,02,16,13.60
2022,08,07,02,17,13.50
2022,08,07,02,18,13.50
2022,08,07,02,19,13.50
2022,08,07,02,20,13.40
2022,08,07,02,21,13.40
2022,08,07,02,22,13.40
2022,08,07,02,23,13.40
2022,08,07,02,24,13.30
2022,08,07,02,25,13.30
2022,08,07,02,26,13.30
2022,08,07,02,27,13.30
2022,08,07,02,28,13.30
2022,08,07,02,29,13.30
2022,08,07,02,30,13.40
2022,08,07,02,31,13.40
2022,08,07,02,32,13.40
2022,08,07,02,33,13.40
2022,08,07,02,34,13.50
2022,08,07,02,35,13.50
2022,08,07,02,36,13.50
2022,08,07,02,37,13.60
2022,08,07,02,38,13.60
2022,08,07,02,39,13.60
2022,08,07,02,40,13.60
2022,08,07,02,41,13.60
2022,08,07,02,42,13.60
2022,08,07,02,43,13.60
2022,08,07,02,44,13.60
2022,08,07,02,45,13.60
2022,08,07,02,46,13.60
2022,08,07,02,47,13.60
2022,08,07,02,48,13.60
2022,08,07,02,49,13.60
2022,08,07,02,50,13.50
2022,08,07,02,51,13.50
2022,08,07,02,52,13.50
2022,08,07,02,53,13.50
2022,08,07,02,54,13.60
2022,08,07,02,55,13.60
2022,08,07,02,56,13.60
2022,08,07,02,57,13.50
2022,08,07,02,58,13.50
2022,08,07,02,59,13.50
2022,08,07,03,00,13.40
2022,08,07,03,01,13.40
2022,08,07,03,02,13.40
2022,08,07,03,03,13.40
2022,08,07,03,04,13.40
2022,08,07,03,05,13.40
2022,08,07,03,06,13.40
2022,08,07,03,07,13.30
2022,08,07,03,08,13.30
2022,08,07,03,09,13.30
2022,08,07,03,10,13.30
2022,08,07,03,11,13.30
2022,08,07,03,12,13.20
2022,08,07,03,13,13.20
2022,08,07,03,14,13.20
2022,08,07,03,15,13.10
2022,08,07,03,16,13.10
2022,08,07,03,17,13.10
2022,08,07,03,18,13.00
2022,08,07,03,19,13.00
2022,08,07,03,20,13.00
2022,08,07,03,21,12.90
2022,08,07,03,22,12.90
2022,08,07,03,23,12.90
2022,08,07,03,24,12.90
2022,08,07,03,25,12.90
2022,08,07,03,26,12.80
2022,08,07,03,27,12.80
2022,08,07,03,28,12.80
2022,08,07,03,29,12.80
2022,08,07,03,30,12.80
2022,08,07,03,31,12.80
2022,08,07,03,32,12.90
2022,08,07,03,33,12.90
2022,08,07,03,34,12.90
2022,08,07,03,35,12.90
2022,08,07,03,36,12.90
2022,08,07,03,37,12.90
2022,08,07,03,38,12.90
2022,08,07,03,39,12.90
2022,08,07,03,40,12.90
2022,08,07,03,41,12.80
2022,08,07,03,42,12.80
2022,08,07,03,43,12.80
2022,08,07,03,44,12.80
2022,08,07,03,45,12.70
2022,08,07,03,46,12.70
2022,08,07,03,47,12.70
2022,08,07,03,48,12.70
2022,08,07,03,49,12.70
2022,08,07,03,50,12.70
2022,08,07,03,51,12.60
2022,08,07,03,52,12.60
2022,08,07,03,53,12.60
2022,08,07,03,54,12.70
2022,08,07,03,55,12.70
2022,08,07,03,56,12.70
2022,08,07,03,57,12.70
2022,08,07,03,58,12.80
2022,08,07,03,59,12.90
2022,08,07,04,00,12.90
2022,08,07,04,01,12.90
2022,08,07,04,02,12.90
2022,08,07,04,03,13.00
2022,08,07,04,04,13.00
2022,08,07,04,05,13.10
2022,08,07,04,06,13.10
2022,08,07,04,07,13.10
2022,08,07,04,08,13.10
2022,08,07,04,09,13.10
2022,08,07,04,10,13.10
2022,08,07,04,11,13.10
2022,08,07,04,12,13.10
2022,08,07,04,13,13.10
2022,08,07,04,14,13.10
2022,08,07,04,15,13.10
2022,08,07,04,16,13.10
2022,08,07,04,17,13.10
2022,08,07,04,18,13.10
2022,08,07,04,19,13.10
2022,08,07,04,20,13.10
2022,08,07,04,21,13.00
2022,08,07,04,22,13.00
2022,08,07,04,23,13.00
2022,08,07,04,24,13.00
2022,08,07,04,25,13.00
2022,08,07,04,26,12.90
2022,08,07,04,27,12.90
2022,08,07,04,28,12.90
2022,08,07,04,29,12.90
2022,08,07,04,30,12.80
2022,08,07,04,31,12.80
2022,08,07,04,32,12.80
2022,08,07,04,33,12.70
2022,08,07,04,34,12.70
2022,08,07,04,35,12.70
2022,08,07,04,36,12.70
2022,08,07,04,37,12.60
2022,08,07,04,38,12.60
2022,08,07,04,39,12.60
2022,08,07,04,40,12.60
2022,08,07,04,41,12.50
2022,08,07,04,42,12.50
2022,08,07,04,43,12.50
2022,08,07,04,44,12.40
2022,08,07,04,45,12.40
2022,08,07,04,46,12.40
2022,08,07,04,47,12.40
2022,08,07,04,48,12.40
2022,08,07,04,49,12.40
2022,08,07,04,50,12.40
2022,08,07,04,51,12.40
2022,08,07,04,52,12.50
2022,08,07,04,53,12.50
2022,08,07,04,54,12.60
2022,08,07,04,55,12.60
2022,08,07,04,56,12.60
2022,08,07,04,57,12.60
2022,08,07,04,58,12.60
2022,08,07,04,59,12.60
2022,08,07,05,00,12.60
2022,08,07,05,01,12.60
2022,08,07,05,02,12.70
2022,08,07,05,03,12.70
2022,08,07,05,04,12.70
2022,08,07,05,05,12.70
2022,08,07,05,06,12.70
2022,08,07,05,07,12.70
2022,08,07,05,08,12.70
2022,08,07,05,09,12.60
2022,08,07,05,10,12.60
2022,08,07,05,11,12.60
2022,08,07,05,12,12.60
2022,08,07,05,13,12.70
2022,08,07,05,14,12.70
2022,08,07,05,15,12.80
2022,08,07,05,16,12.90
2022,08,07,05,17,13.00
2022,08,07,05,18,13.10
2022,08,07,05,19,13.30
2022,08,07,05,20,13.40
2022,08,07,05,21,13.50
2022,08,07,05,22,13.50
2022,08,07,05,23,13.60
2022,08,07,05,24,13.70
2022,08,07,05,25,13.80
2022,08,07,05,26,13.80
2022,08,07,05,27,13.90
2022,08,07,05,28,14.00
2022,08,07,05,29,14.10
2022,08,07,05,30,14.20
2022,08,07,05,31,14.30
2022,08,07,05,32,14.40
2022,08,07,05,33,14.40
2022,08,07,05,34,14.50
2022,08,07,05,35,14.60
2022,08,07,05,36,14.60
2022,08,07,05,37,14.70
2022,08,07,05,38,14.70
2022,08,07,05,39,14.70
2022,08,07,05,40,14.70
2022,08,07,05,41,14.70
2022,08,07,05,42,14.80
2022,08,07,05,43,14.80
2022,08,07,05,44,14.80
2022,08,07,05,45,14.80
2022,08,07,05,46,14.80
2022,08,07,05,47,14.80
2022,08,07,05,48,14.80
2022,08,07,05,49,14.80
2022,08,07,05,50,14.80
2022,08,07,05,51,14.80
2022,08,07,05,52,14.80
2022,08,07,05,53,14.80
2022,08,07,05,54,14.70
2022,08,07,05,55,14.70
2022,08,07,05,56,14.70
2022,08,07,05,57,14.70
2022,08,07,05,58,14.70
2022,08,07,05,59,14.70
2022,08,07,06,00,14.70
2022,08,07,06,01,14.70
2022,08,07,06,02,14.70
2022,08,07,06,03,14.70
2022,08,07,06,04,14.70
2022,08,07,06,05,14.70
2022,08,07,06,06,14.60
2022,08,07,06,07,14.60
2022,08,07,06,08,14.60
2022,08,07,06,09,14.60
2022,08,07,06,10,14.50
2022,08,07,06,11,14.50
2022,08,07,06,12,14.40
2022,08,07,06,13,14.40
2022,08,07,06,14,14.30
2022,08,07,06,15,14.30
2022,08,07,06,16,14.30
2022,08,07,06,17,14.20
2022,08,07,06,18,14.20
2022,08,07,06,19,14.10
2022,08,07,06,20,14.10
2022,08,07,06,21,14.00
2022,08,07,06,22,14.00
2022,08,07,06,23,13.90
2022,08,07,06,24,13.90
2022,08,07,06,25,13.80
2022,08,07,06,26,13.80
2022,08,07,06,27,13.70
2022,08,07,06,28,13.70
2022,08,07,06,29,13.70
2022,08,07,06,30,13.60
2022,08,07,06,31,13.60
2022,08,07,06,32,13.60
2022,08,07,06,33,13.50
2022,08,07,06,34,13.50
2022,08,07,06,35,13.50
2022,08,07,06,36,13.40
2022,08,07,06,37,13.40
2022,08,07,06,38,13.40
2022,08,07,06,39,13.40
2022,08,07,06,40,13.40
2022,08,07,06,41,13.40
2022,08,07,06,42,13.40
2022,08,07,06,43,13.40
2022,08,07,06,44,13.40
2022,08,07,06,45,13.50
2022,08,07,06,46,13.50
2022,08,07,06,47,13.60
2022,08,07,06,48,13.70
2022,08,07,06,49,13.80
2022,08,07,06,50,13.90
2022,08,07,06,51,13.90
2022,08,07,06,52,14.00
2022,08,07,06,53,14.10
2022,08,07,06,54,14.20
2022,08,07,06,55,14.20
2022,08,07,06,56,14.30
2022,08,07,06,57,14.30
2022,08,07,06,58,14.30
2022,08,07,06,59,14.40
2022,08,07,07,00,14.40
2022,08,07,07,01,14.40
2022,08,07,07,02,14.50
2022,08,07,07,03,14.50
2022,08,07,07,04,14.50
2022,08,07,07,05,14.60
2022,08,07,07,06,14.60
2022,08,07,07,07,14.60
2022,08,07,07,08,14.60
2022,08,07,07,09,14.60
2022,08,07,07,10,14.60
2022,08,07,07,11,14.60
2022,08,07,07,12,14.70
2022,08,07,07,13,14.70
2022,08,07,07,14,14.80
2022,08,07,07,15,14.80
2022,08,07,07,16,14.80
2022,08,07,07,17,14.80
2022,08,07,07,18,14.90
2022,08,07,07,19,14.90
2022,08,07,07,20,14.90
2022,08,07,07,21,15.00
2022,08,07,07,22,15.10
2022,08,07,07,23,15.10
2022,08,07,07,24,15.10
2022,08,07,07,25,15.20
2022,08,07,07,26,15.30
2022,08,07,07,27,15.30
2022,08,07,07,28,15.40
2022,08,07,07,29,15.40
2022,08,07,07,30,15.40
2022,08,07,07,31,15.50
2022,08,07,07,32,15.60
2022,08,07,07,33,15.60
2022,08,07,07,34,15.70
2022,08,07,07,35,15.70
2022,08,07,07,36,15.70
2022,08,07,07,37,15.80
2022,08,07,07,38,15.80
2022,08,07,07,39,15.90
2022,08,07,07,40,16.00
2022,08,07,07,41,16.00
2022,08,07,07,42,16.10
2022,08,07,07,43,16.10
2022,08,07,07,44,16.20
2022,08,07,07,45,16.20
2022,08,07,07,46,16.30
2022,08,07,07,47,16.40
2022,08,07,07,48,16.50
2022,08,07,07,49,16.60
2022,08,07,07,50,16.70
2022,08,07,07,51,16.80
2022,08,07,07,52,16.90
2022,08,07,07,53,17.00
2022,08,07,07,54,17.20
2022,08,07,07,55,17.20
2022,08,07,07,56,17.40
2022,08,07,07,57,17.50
2022,08,07,07,58,17.60
2022,08,07,07,59,17.70
2022,08,07,08,00,17.70
2022,08,07,08,01,17.90
2022,08,07,08,02,18.00
2022,08,07,08,03,18.10
2022,08,07,08,04,18.20
2022,08,07,08,05,18.20
2022,08,07,08,06,18.30
2022,08,07,08,07,18.40
2022,08,07,08,08,18.50
2022,08,07,08,09,18.60
2022,08,07,08,10,18.70
2022,08,07,08,11,18.70
2022,08,07,08,12,18.80
2022,08,07,08,13,18.80
2022,08,07,08,14,18.90
2022,08,07,08,15,19.00
2022,08,07,08,16,19.10
2022,08,07,08,17,19.10
2022,08,07,08,18,19.20
2022,08,07,08,19,19.20
2022,08,07,08,20,19.30
2022,08,07,08,21,19.40
2022,08,07,08,22,19.40
2022,08,07,08,23,19.50
2022,08,07,08,24,19.50
2022,08,07,08,25,19.60
2022,08,07,08,26,19.60
2022,08,07,08,27,19.60
2022,08,07,08,28,19.70
2022,08,07,08,29,19.70
2022,08,07,08,30,19.70
2022,08,07,08,31,19.80
2022,08,07,08,32,19.80
2022,08,07,08,33,19.90
2022,08,07,08,34,19.90
2022,08,07,08,35,19.90
2022,08,07,08,36,20.00
2022,08,07,08,37,20.00
2022,08,07,08,38,20.10
2022,08,07,08,39,20.10
2022,08,07,08,40,20.10
2022,08,07,08,41,20.20
2022,08,07,08,42,20.20
2022,08,07,08,43,20.20
2022,08,07,08,44,20.20
2022,08,07,08,45,20.30
2022,08,07,08,46,20.30
2022,08,07,08,47,20.30
2022,08,07,08,48,20.30
2022,08,07,08,49,20.40
2022,08,07,08,50,20.40
2022,08,07,08,51,20.50
2022,08,07,08,52,20.50
2022,08,07,08,53,20.50
2022,08,07,08,54,20.60
2022,08,07,08,55,20.60
2022,08,07,08,56,20.70
2022,08,07,08,57,20.70
2022,08,07,08,58,20.80
2022,08,07,08,59,20.80
2022,08,07,09,00,20.80
2022,08,07,09,01,20.90
2022,08,07,09,02,20.90
2022,08,07,09,03,21.00
2022,08,07,09,04,21.00
2022,08,07,09,05,21.00
2022,08,07,09,06,21.10
2022,08,07,09,07,21.10
2022,08,07,09,08,21.20
2022,08,07,09,09,21.20
2022,08,07,09,10,21.20
2022,08,07,09,11,21.30
2022,08,07,09,12,21.30
2022,08,07,09,13,21.40
2022,08,07,09,14,21.40
2022,08,07,09,15,21.50
2022,08,07,09,16,21.50
2022,08,07,09,17,21.50
2022,08,07,09,18,21.50
2022,08,07,09,19,21.60
2022,08,07,09,20,21.60
2022,08,07,09,21,21.60
2022,08,07,09,22,21.70
2022,08,07,09,23,21.70
2022,08,07,09,24,21.70
2022,08,07,09,25,21.80
2022,08,07,09,26,21.80
2022,08,07,09,27,21.90
2022,08,07,09,28,21.90
2022,08,07,09,29,22.00
2022,08,07,09,30,22.00
2022,08,07,09,31,22.10
2022,08,07,09,32,22.10
2022,08,07,09,33,22.10
2022,08,07,09,34,22.20
2022,08,07,09,35,22.20
2022,08,07,09,36,22.30
2022,08,07,09,37,22.30
2022,08,07,09,38,22.40
2022,08,07,09,39,22.40
2022,08,07,09,40,22.40
2022,08,07,09,41,22.50
2022,08,07,09,42,22.60
2022,08,07,09,43,22.60
2022,08,07,09,44,22.70
2022,08,07,09,45,22.70
2022,08,07,09,46,22.80
2022,08,07,09,47,22.80
2022,08,07,09,48,22.90
2022,08,07,09,49,22.90
2022,08,07,09,50,22.90
2022,08,07,09,51,23.00
2022,08,07,09,52,23.00
2022,08,07,09,53,23.00
2022,08,07,09,54,23.10
2022,08,07,09,55,23.10
2022,08,07,09,56,23.10
2022,08,07,09,57,23.20
2022,08,07,09,58,23.20
2022,08,07,09,59,23.30
2022,08,07,10,00,23.30
2022,08,07,10,01,23.30
2022,08,07,10,02,23.30
2022,08,07,10,03,23.40
2022,08,07,10,04,23.40
2022,08,07,10,05,23.40
2022,08,07,10,06,23.50
2022,08,07,10,07,23.60
2022,08,07,10,08,23.60
2022,08,07,10,09,23.60
2022,08,07,10,10,23.70
2022,08,07,10,11,23.70
2022,08,07,10,12,23.70
2022,08,07,10,13,23.80
2022,08,07,10,14,23.80
2022,08,07,10,15,23.80
2022,08,07,10,16,23.80
2022,08,07,10,17,23.80
2022,08,07,10,18,23.80
2022,08,07,10,19,23.80
2022,08,07,10,20,23.90
2022,08,07,10,21,23.90
2022,08,07,10,22,23.90
2022,08,07,10,23,24.00
2022,08,07,10,24,24.00
2022,08,07,10,25,24.00
2022,08,07,10,26,24.10
2022,08,07,10,27,24.10
2022,08,07,10,28,24.10
2022,08,07,10,29,24.20
2022,08,07,10,30,24.20
2022,08,07,10,31,24.30
2022,08,07,10,32,24.30
2022,08,07,10,33,24.30
2022,08,07,10,34,24.40
2022,08,07,10,35,24.50
2022,08,07,10,36,24.50
2022,08,07,10,37,24.60
2022,08,07,10,38,24.60
2022,08,07,10,39,24.70
2022,08,07,10,40,24.70
2022,08,07,10,41,24.70
2022,08,07,10,42,24.80
2022,08,07,10,43,24.80
2022,08,07,10,44,24.80
2022,08,07,10,45,24.90
2022,08,07,10,46,24.90
2022,08,07,10,47,24.90
2022,08,07,10,48,24.90
2022,08,07,10,49,24.90
2022,08,07,10,50,24.90
2022,08,07,10,51,24.90
2022,08,07,10,52,25.00
2022,08,07,10,53,25.00
2022,08,07,10,54,25.10
2022,08,07,10,55,25.20
2022,08,07,10,56,25.20
2022,08,07,10,57,25.20
2022,08,07,10,58,25.30
2022,08,07,10,59,25.30
2022,08,07,11,00,25.30
2022,08,07,11,01,25.30
2022,08,07,11,02,25.30
2022,08,07,11,03,25.40
2022,08,07,11,04,25.40
2022,08,07,11,05,25.40
2022,08,07,11,06,25.40
2022,08,07,11,07,25.40
2022,08,07,11,08,25.40
2022,08,07,11,09,25.40
2022,08,07,11,10,25.50
2022,08,07,11,11,25.50
2022,08,07,11,12,25.50
2022,08,07,11,13,25.60
2022,08,07,11,14,25.60
2022,08,07,11,15,25.70
2022,08,07,11,16,25.70
2022,08,07,11,17,25.70
2022,08,07,11,18,25.70
2022,08,07,11,19,25.80
2022,08,07,11,20,25.80
2022,08,07,11,21,25.80
2022,08,07,11,22,25.80
2022,08,07,11,23,25.80
2022,08,07,11,24,25.80
2022,08,07,11,25,25.80
2022,08,07,11,26,25.80
2022,08,07,11,27,25.90
2022,08,07,11,28,25.80
2022,08,07,11,29,25.90
2022,08,07,11,30,25.90
2022,08,07,11,31,25.90
2022,08,07,11,32,25.90
2022,08,07,11,33,25.90
2022,08,07,11,34,25.90
2022,08,07,11,35,25.90
2022,08,07,11,36,26.00
2022,08,07,11,37,26.10
2022,08,07,11,38,26.20
2022,08,07,11,39,26.30
2022,08,07,11,40,26.40
2022,08,07,11,41,26.40
2022,08,07,11,42,26.50
2022,08,07,11,43,26.60
2022,08,07,11,44,26.60
2022,08,07,11,45,26.50
2022,08,07,11,46,26.50
2022,08,07,11,47,26.40
2022,08,07,11,48,26.40
2022,08,07,11,49,26.40
2022,08,07,11,50,26.30
2022,08,07,11,51,26.40
2022,08,07,11,52,26.40
2022,08,07,11,53,26.50
2022,08,07,11,54,26.50
2022,08,07,11,55,26.60
2022,08,07,11,56,26.60
2022,08,07,11,57,26.70
2022,08,07,11,58,26.70
2022,08,07,11,59,26.80
2022,08,07,12,00,26.90
2022,08,07,12,01,26.90
2022,08,07,12,02,27.00
2022,08,07,12,03,27.10
2022,08,07,12,04,27.10
2022,08,07,12,05,27.10
2022,08,07,12,06,27.20
2022,08,07,12,07,27.30
2022,08,07,12,08,27.30
2022,08,07,12,09,27.30
2022,08,07,12,10,27.40
2022,08,07,12,11,27.40
2022,08,07,12,12,27.50
2022,08,07,12,13,27.60
2022,08,07,12,14,27.70
2022,08,07,12,15,27.70
2022,08,07,12,16,27.80
2022,08,07,12,17,27.80
2022,08,07,12,18,27.90
2022,08,07,12,19,27.90
2022,08,07,12,20,27.90
2022,08,07,12,21,27.90
2022,08,07,12,22,27.90
2022,08,07,12,23,27.90
2022,08,07,12,24,28.00
2022,08,07,12,25,28.10
2022,08,07,12,26,28.10
2022,08,07,12,27,28.20
2022,08,07,12,28,28.20
2022,08,07,12,29,28.20
2022,08,07,12,30,28.30
2022,08,07,12,31,28.30
2022,08,07,12,32,28.40
2022,08,07,12,33,28.40
2022,08,07,12,34,28.30
2022,08,07,12,35,28.30
2022,08,07,12,36,28.30
2022,08,07,12,37,28.30
2022,08,07,12,38,28.40
2022,08,07,12,39,28.40
2022,08,07,12,40,28.40
2022,08,07,12,41,28.40
2022,08,07,12,42,28.50
2022,08,07,12,43,28.50
2022,08,07,12,44,28.60
2022,08,07,12,45,28.70
2022,08,07,12,46,28.70
2022,08,07,12,47,28.80
2022,08,07,12,48,28.90
2022,08,07,12,49,28.90
2022,08,07,12,50,29.00
2022,08,07,12,51,29.00
2022,08,07,12,52,29.00
2022,08,07,12,53,29.10
2022,08,07,12,54,29.10
2022,08,07,12,55,29.10
2022,08,07,12,56,29.20
2022,08,07,12,57,29.30
2022,08,07,12,58,29.30
2022,08,07,12,59,29.40
2022,08,07,13,00,29.60
2022,08,07,13,01,29.70
2022,08,07,13,02,29.80
2022,08,07,13,03,29.90
2022,08,07,13,04,29.90
2022,08,07,13,05,29.90
2022,08,07,13,06,29.90
2022,08,07,13,07,30.00
2022,08,07,13,08,30.00
2022,08,07,13,09,30.10
2022,08,07,13,10,30.00
2022,08,07,13,11,30.00
2022,08,07,13,12,30.00
2022,08,07,13,13,29.90
2022,08,07,13,14,29.90
2022,08,07,13,15,29.90
2022,08,07,13,16,29.90
2022,08,07,13,17,30.00
2022,08,07,13,18,30.00
2022,08,07,13,19,29.90
2022,08,07,13,20,29.90
2022,08,07,13,21,29.90
2022,08,07,13,22,29.90
2022,08,07,13,23,29.90
2022,08,07,13,24,29.90
2022,08,07,13,25,29.90
2022,08,07,13,26,29.90
2022,08,07,13,27,29.90
2022,08,07,13,28,30.00
2022,08,07,13,29,30.10
2022,08,07,13,30,30.10
2022,08,07,13,31,30.20
2022,08,07,13,32,30.20
2022,08,07,13,33,30.20
2022,08,07,13,34,30.30
2022,08,07,13,35,30.30
2022,08,07,13,36,30.30
2022,08,07,13,37,30.30
2022,08,07,13,38,30.30
2022,08,07,13,39,30.40
2022,08,07,13,40,30.40
2022,08,07,13,41,30.40
2022,08,07,13,42,30.40
2022,08,07,13,43,30.40
2022,08,07,13,44,30.40
2022,08,07,13,45,30.30
2022,08,07,13,46,30.30
2022,08,07,13,47,30.30
2022,08,07,13,48,30.30
2022,08,07,13,49,30.30
2022,08,07,13,50,30.40
2022,08,07,13,51,30.40
2022,08,07,13,52,30.50
2022,08,07,13,53,30.50
2022,08,07,13,54,30.60
2022,08,07,13,55,30.60
2022,08,07,13,56,30.70
2022,08,07,13,57,30.70
2022,08,07,13,58,30.70
2022,08,07,13,59,30.80
2022,08,07,14,00,30.90
2022,08,07,14,01,30.90
2022,08,07,14,02,31.00
2022,08,07,14,03,31.00
2022,08,07,14,04,31.10
2022,08,07,14,05,31.10
2022,08,07,14,06,31.10
2022,08,07,14,07,31.10
2022,08,07,14,08,31.20
2022,08,07,14,09,31.20
2022,08,07,14,10,31.20
2022,08,07,14,11,31.10
2022,08,07,14,12,31.10
2022,08,07,14,13,31.10
2022,08,07,14,14,31.20
2022,08,07,14,15,31.20
2022,08,07,14,16,31.30
2022,08,07,14,17,31.30
2022,08,07,14,18,31.30
2022,08,07,14,19,31.30
2022,08,07,14,20,31.30
2022,08,07,14,21,31.20
2022,08,07,14,22,31.20
2022,08,07,14,23,31.20
2022,08,07,14,24,31.30
2022,08,07,14,25,31.40
2022,08,07,14,26,31.40
2022,08,07,14,27,31.40
2022,08,07,14,28,31.40
2022,08,07,14,29,31.30
2022,08,07,14,30,31.30
2022,08,07,14,31,31.20
2022,08,07,14,32,31.10
2022,08,07,14,33,31.00
2022,08,07,14,34,30.90
2022,08,07,14,35,30.80
2022,08,07,14,36,30.80
2022,08,07,14,37,30.80
2022,08,07,14,38,30.80
2022,08,07,14,39,30.80
2022,08,07,14,40,30.80
2022,08,07,14,41,30.80
2022,08,07,14,42,30.80
2022,08,07,14,43,30.80
2022,08,07,14,44,30.80
2022,08,07,14,45,30.80
2022,08,07,14,46,30.80
2022,08,07,14,47,30.80
2022,08,07,14,48,30.80
2022,08,07,14,49,30.90
2022,08,07,14,50,30.90
2022,08,07,14,51,31.00
2022,08,07,14,52,31.10
2022,08,07,14,53,31.10
2022,08,07,14,54,31.20
2022,08,07,14,55,31.20
2022,08,07,14,56,31.30
2022,08,07,14,57,31.30
2022,08,07,14,58,31.40
2022,08,07,14,59,31.40
2022,08,07,15,00,31.50
2022,08,07,15,01,31.50
2022,08,07,15,02,31.60
2022,08,07,15,03,31.60
2022,08,07,15,04,31.60
2022,08,07,15,05,31.60
2022,08,07,15,06,31.60
2022,08,07,15,07,31.70
2022,08,07,15,08,31.60
2022,08,07,15,09,31.60
2022,08,07,15,10,31.50
2022,08,07,15,11,31.50
2022,08,07,15,12,31.40
2022,08,07,15,13,31.40
2022,08,07,15,14,31.40
2022,08,07,15,15,31.40
2022,08,07,15,16,31.40
2022,08,07,15,17,31.40
2022,08,07,15,18,31.40
2022,08,07,15,19,31.40
2022,08,07,15,20,31.40
2022,08,07,15,21,31.30
2022,08,07,15,22,31.30
2022,08,07,15,23,31.20
2022,08,07,15,24,31.10
2022,08,07,15,25,31.00
2022,08,07,15,26,31.00
2022,08,07,15,27,30.90
2022,08,07,15,28,30.90
2022,08,07,15,29,31.00
2022,08,07,15,30,31.00
2022,08,07,15,31,31.10
2022,08,07,15,32,31.10
2022,08,07,15,33,31.20
2022,08,07,15,34,31.20
2022,08,07,15,35,31.30
2022,08,07,15,36,31.30
2022,08,07,15,37,31.30
2022,08,07,15,38,31.20
2022,08,07,15,39,31.20
2022,08,07,15,40,31.20
2022,08,07,15,41,31.20
2022,08,07,15,42,31.30
2022,08,07,15,43,31.30
2022,08,07,15,44,31.30
2022,08,07,15,45,31.30
2022,08,07,15,46,31.20
2022,08,07,15,47,31.20
2022,08,07,15,48,31.20
2022,08,07,15,49,31.10
2022,08,07,15,50,31.00
2022,08,07,15,51,31.00
2022,08,07,15,52,31.00
2022,08,07,15,53,31.00
2022,08,07,15,54,31.10
2022,08,07,15,55,31.10
2022,08,07,15,56,31.10
2022,08,07,15,57,31.10
2022,08,07,15,58,31.10
2022,08,07,15,59,31.10
2022,08,07,16,00,31.10
2022,08,07,16,01,31.10
2022,08,07,16,02,31.20
2022,08,07,16,03,31.20
2022,08,07,16,04,31.20
2022,08,07,16,05,31.20
2022,08,07,16,06,31.20
2022,08,07,16,07,31.20
2022,08,07,16,08,31.30
2022,08,07,16,09,31.30
2022,08,07,16,10,31.40
2022,08,07,16,11,31.40
2022,08,07,16,12,31.40
2022,08,07,16,13,31.40
2022,08,07,16,14,31.40
2022,08,07,16,15,31.40
2022,08,07,16,16,31.40
2022,08,07,16,17,31.40
2022,08,07,16,18,31.40
2022,08,07,16,19,31.40
2022,08,07,16,20,31.40
2022,08,07,16,21,31.40
2022,08,07,16,22,31.50
2022,08,07,16,23,31.50
2022,08,07,16,24,31.60
2022,08,07,16,25,31.60
2022,08,07,16,26,31.70
2022,08,07,16,27,31.70
2022,08,07,16,28,31.70
2022,08,07,16,29,31.60
2022,08,07,16,30,31.60
2022,08,07,16,31,31.60
2022,08,07,16,32,31.70
2022,08,07,16,33,31.70
2022,08,07,16,34,31.70
2022,08,07,16,35,31.70
2022,08,07,16,36,31.70
2022,08,07,16,37,31.80
2022,08,07,16,38,31.80
2022,08,07,16,39,31.80
2022,08,07,16,40,31.90
2022,08,07,16,41,31.90
2022,08,07,16,42,31.90
2022,08,07,16,43,32.00
2022,08,07,16,44,32.00
2022,08,07,16,45,32.10
2022,08,07,16,46,32.10
2022,08,07,16,47,32.00
2022,08,07,16,48,31.90
2022,08,07,16,49,31.80
2022,08,07,16,50,31.80
2022,08,07,16,51,31.70
2022,08,07,16,52,31.70
2022,08,07,16,53,31.70
2022,08,07,16,54,31.80
2022,08,07,16,55,31.70
2022,08,07,16,56,31.70
2022,08,07,16,57,31.70
2022,08,07,16,58,31.70
2022,08,07,16,59,31.60
2022,08,07,17,00,31.60
2022,08,07,17,01,31.60
2022,08,07,17,02,31.60
2022,08,07,17,03,31.50
2022,08,07,17,04,31.50
2022,08,07,17,05,31.40
2022,08,07,17,06,31.40
2022,08,07,17,07,31.40
2022,08,07,17,08,31.30
2022,08,07,17,09,31.20
2022,08,07,17,10,31.10
2022,08,07,17,11,31.00
2022,08,07,17,12,31.00
2022,08,07,17,13,30.90
2022,08,07,17,14,30.80
2022,08,07,17,15,30.80
2022,08,07,17,16,30.70
2022,08,07,17,17,30.70
2022,08,07,17,18,30.70
2022,08,07,17,19,30.60